Flight Track Log - Related Links

Times and Time Zones

All times are in EDT time to prevent confusion due to time zone crossing. See the UAL5262 flight status page for this flight to view local times or setup timezone preferences in your user account.

Time Position Orientation Groundspeed Altitude Reporting Facility
EDT Latitude Longitude Course Direction KTS MPH feet Rate Location/Type
09:52PM 29.9661 -95.3456 90° East 155 178 600  Level Houston Center
09:53PM 29.9339 -95.2697 116° Southeast 221 254 4,000 2,286 Climbing Houston Center
09:54PM 29.9281 -95.2497 109° East 205 236 4,600 2,300 Climbing Houston Center
09:54PM 29.9206 -95.1919 99° East 271 312 6,300 2,226 Climbing Houston Center
09:55PM 29.9834 -94.8961 90° East  Level FlightAware Approximate
09:55PM 29.9233 -95.1658 83° East 263 303 6,900  Level Houston Center
09:55PM 29.9294 -95.0869 85° East 298 343 8,800 2,164 Climbing Houston Center
09:56PM 29.9834 -94.7504 90° East  Level FlightAware Approximate
09:56PM 29.9322 -95.0731 77° East 286 329 9,100  Level Houston Center
09:56PM 29.9392 -94.9894 85° East 305 351 10,900 1,935 Climbing Houston Center
09:57PM 29.9833 -94.6046 90° East  Level FlightAware Approximate
09:57PM 29.9400 -94.9742 86° East 303 349 11,100  Level Houston Center
09:58PM 29.9503 -94.8689 84° East 322 371 12,600 1,475 Climbing Houston Center
09:59PM 29.9594 -94.7561 85° East 344 396 14,100 1,366 Climbing Houston Center
10:00PM 29.9689 -94.6394 85° East 358 412 15,400 1,366 Climbing Houston Center
10:01PM 29.9792 -94.5169 84° East 375 432 16,900 1,230 Climbing Houston Center
10:02PM 29.9894 -94.3931 84° East 385 443 17,900 1,289 Climbing Houston Center
10:03PM 30.0044 -94.2392 84° East 402 463 19,500 1,415 Climbing Houston Center
10:04PM 30.0203 -94.1092 82° East 406 467 20,800 1,268 Climbing Houston Center
10:05PM 30.0381 -93.9792 81° East 411 473 22,100 1,131 Climbing Houston Center
10:06PM 30.0536 -93.8475 82° East 416 479 23,100 885 Climbing Houston Center
10:07PM 30.0700 -93.7136 82° East 421 484 23,900 787 Climbing Houston Center
10:08PM 30.0872 -93.5756 82° East 434 499 24,700 787 Climbing Houston Center
10:09PM 30.1033 -93.4375 82° East 439 505 25,500 738 Climbing Houston Center
10:10PM 30.1203 -93.2975 82° East 444 511 26,200 639 Climbing Houston Center
10:11PM 30.1403 -93.1258 82° East 452 520 26,800 541 Climbing Houston Center
10:12PM 30.1667 -92.9800 78° East 462 532 27,300 492 Climbing Houston Center
10:13PM 30.1953 -92.8322 77° East 471 542 27,800 443 Climbing Houston Center
10:14PM 30.2236 -92.6833 78° East 475 547 28,200 492 Climbing Houston Center
10:15PM 30.2531 -92.5328 77° East 480 552 28,800 585 Climbing Houston Center
10:16PM 30.2828 -92.3836 77° East 480 552 29,400 683 Climbing Houston Center
10:17PM 30.3094 -92.2442 77° East 471 542 30,200 738 Climbing Houston Center
10:18PM 30.3414 -92.0692 78° East 468 539 30,900 639 Climbing Houston Center
10:19PM 30.3692 -91.9236 77° East 467 537 31,500 590 Climbing Houston Center
10:20PM 30.3964 -91.7786 78° East 467 537 32,100 541 Climbing Houston Center
10:21PM 30.4206 -91.6450 78° East 458 527 32,600 443 Climbing Houston Center
10:22PM 30.4478 -91.5022 77° East 454 522 33,000 197 Climbing Houston Center
10:23PM 30.4742 -91.3567 78° East 459 528 33,000  Level Houston Center
10:24PM 30.5044 -91.2089 77° East 467 537 33,000  Level Houston Center
10:25PM 30.5469 -91.0306 74° East 475 547 33,000  Level Houston Center
10:26PM 30.5811 -90.8831 75° East 476 548 33,000  Level Houston Center
10:27PM 30.6144 -90.7353 75° East 474 545 33,000  Level Houston Center
10:28PM 30.6467 -90.5894 76° East 473 544 33,000  Level Houston Center
10:29PM 30.6789 -90.4411 76° East 473 544 33,000  Level Houston Center
10:30PM 30.7131 -90.2933 75° East 472 543 33,000  Level Houston Center
10:31PM 30.7464 -90.1461 75° East 471 542 33,000  Level Houston Center
10:32PM 30.7853 -89.9997 73° East 470 541 33,000  Level Houston Center
10:33PM 30.8339 -89.8553 69° East 473 544 33,000  Level Houston Center
10:34PM 30.8817 -89.7119 69° East 474 545 33,000  Level Houston Center
10:35PM 30.9286 -89.5672 69° East 474 545 33,000  Level Houston Center
10:36PM 30.9764 -89.4233 69° East 474 545 33,000  Level Houston Center
10:37PM 31.0219 -89.2794 70° East 474 545 33,000  Level Houston Center
10:39PM 31.0689 -89.1344 69° East 475 547 33,000  Level Houston Center
10:40PM 31.1250 -88.9611 69° East 476 548 33,000  Level Houston Center
10:41PM 31.1664 -88.8350 69° East 476 548 33,000  Level Houston Center
10:42PM 31.2128 -88.6886 70° East 477 549 33,000  Level Houston Center
10:43PM 31.2606 -88.5408 69° East 479 551 33,000  Level Houston Center
10:44PM 31.3089 -88.3922 69° East 481 554 33,000  Level Houston Center
10:45PM 31.3564 -88.2422 70° East 482 555 33,000  Level Houston Center
10:46PM 31.4169 -88.0642 68° East 484 557 33,000  Level Houston Center
10:47PM 31.4964 -87.9308 55° Northeast 494 568 33,000  Level Houston Center
10:48PM 31.5764 -87.7986 55° Northeast 495 570 33,000  Level Houston Center
10:48PM 31.6425 -87.6978 52° Northeast 490 564 33,000  Level Atlanta Center
10:49PM 31.7233 -87.5644 54° Northeast 496 571 33,000  Level Atlanta Center
10:50PM 31.8003 -87.4331 55° Northeast 496 571 33,000  Level Atlanta Center
10:51PM 31.8658 -87.3156 57° Northeast 491 565 33,000  Level Atlanta Center
10:52PM 31.9444 -87.1839 55° Northeast 484 557 33,000  Level Atlanta Center
10:53PM 32.0208 -87.0567 55° Northeast 479 551 33,000  Level Atlanta Center
10:54PM 32.1033 -86.9172 55° Northeast 479 551 33,000  Level Atlanta Center
10:55PM 32.1794 -86.7847 56° Northeast 479 551 33,000  Level Atlanta Center
10:56PM 32.2594 -86.6569 53° Northeast 479 551 33,000  Level Atlanta Center
10:57PM 32.3394 -86.5267 54° Northeast 484 557 33,000  Level Atlanta Center
10:58PM 32.4000 -86.4203 56° Northeast 484 557 33,000  Level Atlanta Center
10:59PM 32.4800 -86.2697 58° Northeast 484 557 33,000 -450 Level Atlanta Center
11:00PM 32.5639 -86.1239 56° Northeast 478 550 32,100 -1,750 Descending Atlanta Center
11:01PM 32.6392 -85.9875 57° Northeast 489 563 29,500 -2,500 Descending Atlanta Center
11:02PM 32.7164 -85.8558 55° Northeast 484 557 27,100 -2,450 Descending Atlanta Center
11:03PM 32.7892 -85.7314 55° Northeast 471 542 24,600 -2,450 Descending Atlanta Center
11:04PM 32.8575 -85.6067 57° Northeast 459 528 22,200 -2,300 Descending Atlanta Center
11:05PM 32.9194 -85.4939 57° Northeast 437 503 20,000 -2,200 Descending Atlanta Center
11:06PM 32.9833 -85.3883 54° Northeast 405 466 17,800 -2,100 Descending Atlanta Center
11:07PM 33.0406 -85.2878 56° Northeast 386 444 15,800 -1,850 Descending Atlanta Center
11:08PM 33.0875 -85.2042 56° Northeast 358 412 14,100 -1,850 Descending Atlanta Center
11:09PM 33.1425 -85.1081 56° Northeast 336 387 12,100 -1,000 Descending Atlanta Center
11:10PM 33.1933 -85.0219 55° Northeast 319 367 12,100 -700 Level Atlanta Center
11:11PM 33.2483 -84.9481 48° Northeast 305 351 10,700 -1,450 Descending Atlanta Center
11:12PM 33.3031 -84.8714 49° Northeast 299 344 9,200 -1,600 Descending Atlanta Center
11:13PM 33.3681 -84.8125 37° Northeast 293 337 7,500 -1,740 Descending Atlanta Center
11:14PM 33.4167 -84.7833 27° Northeast 291 335 6,300 -1,440 Descending Atlanta TRACON
11:15PM 33.4833 -84.7333 32° Northeast 279 321 5,100 -632 Descending Atlanta TRACON
11:16PM 33.5500 -84.7000 23° Northeast 274 315 5,100 -474 Level Atlanta TRACON
11:17PM 33.6000 -84.6500 40° Northeast 242 278 4,200 -714 Descending Atlanta TRACON
11:18PM 33.6333 -84.6000 51° Northeast 172 198 3,600 -714 Descending Atlanta TRACON
11:19PM 33.6500 -84.5500 68° East 130 150 2,700 -650 Descending Atlanta TRACON
11:20PM 33.6500 -84.5167 90° East 119 137 2,300 -500 Descending Atlanta TRACON
11:21PM 33.6500 -84.4667 90° East 124 143 1,700 -600 Descending Atlanta TRACON

Login

Don't have an account? Register now (free) for customized features, flight alerts, and more!